Regional Weather Roundup
Issued by NWS Charleston, WV

Home | Current Version | Previous Version | Text Only | Print | Product List | Glossary Off
Versions: 1 2 3 4 5 6 7 8 9 10 11 12 13 14 15 16 17 18 19 20 21 22 23 24 25 26 27 28 29 30 31 32 33 34 35 36 37 38 39 40 41 42 43 44 45 46 47 48 49 50

549
ASUS41 KRLX 181010
RWRRLX
West Virginia Regional Weather Roundup
National Weather Service Charleston WV
600 AM EDT WED OCT 18 2017

Note: "fair" indicates few or no clouds below 12,000 feet with no
significant weather and/or obstructions to visibility.

WVZ003-181100-
Northern Panhandle of West Virginia

CITY           SKY/WX    TMP DP  RH WIND       PRES   REMARKS
WHEELING       CLEAR     45  37  73 SE3       30.32R
$$

WVZ009-181100-
Northwest West Virginia

CITY           SKY/WX    TMP DP  RH WIND       PRES   REMARKS
PARKERSBURG    FOG       39  38  96 CALM      30.35R VSB<1/4
$$

WVZ006-181100-
Western West Virginia

CITY           SKY/WX    TMP DP  RH WIND       PRES   REMARKS
HUNTINGTON     CLEAR     39  37  92 E3        30.31R
$$

WVZ015-181100-
West Central West Virginia

CITY           SKY/WX    TMP DP  RH WIND       PRES   REMARKS
CHARLESTON     PTCLDY    38  37  97 CALM      30.32R
$$

WVZ022-031-181100-
North Central West Virginia

CITY           SKY/WX    TMP DP  RH WIND       PRES   REMARKS
CLARKSBURG     CLEAR     36  34  92 CALM      30.33S
MORGANTOWN     CLEAR     40  36  86 CALM      30.34S
$$

WVZ025-035-042-045-181100-
Southern West Virginia

CITY           SKY/WX    TMP DP  RH WIND       PRES   REMARKS
BECKLEY        CLEAR     38  33  82 CALM      30.32S
LOGAN            N/A     45  39  81 CALM      30.31R
BLUEFIELD      CLEAR     40  34  79 CALM      30.34R
LEWISBURG      CLEAR     33  32  96 CALM      30.35S
$$

WVZ047-181100-
Northern Mountains of West Virginia

CITY           SKY/WX    TMP DP  RH WIND       PRES   REMARKS
ELKINS         FOG       32  30  92 CALM      30.37S VSB 1/4
$$

WVZ052-181100-
Eastern Panhandle of West Virginia

CITY           SKY/WX    TMP DP  RH WIND       PRES   REMARKS
MARTINSBURG    CLEAR     36  34  92 CALM      30.34R
PETERSBURG     CLEAR     34  34  99 CALM      30.37R
$$




USA.gov is the U.S. government's official web portal to all federal, state and local government web resources and services.